{"data":{"norad_id":60212,"intl_designator":"2024-126B","name":"TIANHUI 5D","alt_names":[],"object_type":"PAYLOAD","status":"ACTIVE","operator":null,"country":"PRC","launch_date":"2024-07-04","launch_site_code":"TAISC","launch_vehicle":null,"mission":null,"orbit_class":"UNKNOWN","rcs_meters":null,"size_class":null,"mass_kg":null,"dimensions":null,"purposes":[],"wikipedia_slug":null,"has_3d_model":false,"image_url":null,"decayed_at":null,"tle_current":{"epoch":"2026-05-24T08:31:18.035040Z","epoch_age_seconds":141306,"freshness":"FRESH","line1":"1 60212U 24126B   26144.35506985  .00000112  00000+0  18308-4 0  9991","line2":"2 60212  97.8201 152.2507 0001939  88.5093 271.6345 14.87572619102356","mean_motion":14.87572619,"eccentricity":0.0001939,"inclination_deg":97.8201,"raan_deg":152.2507,"arg_perigee_deg":88.5093,"mean_anomaly_deg":271.6345,"bstar":1.8308e-5,"rev_number":10235,"period_min":96.801996864396,"perigee_km":604.16838314933,"apogee_km":606.87664630914,"semimajor_km":6983.6595147292,"source":"CELESTRAK","updated_at":"2026-05-25T13:38:01.928595Z"}}}